Temperature
21 20 20 21 26 29 28 28 28 27 27 26 25 25 26 25 24 22 20 19 19 19 18 19 19 19 19 18 18 18 18 18 18 18 18 18 18 18 18 18 18 18 18 18 18 18 18 18 18
20 20 21 24 29 29 27 28 27 27 26 25 25 25 25 23 22 20 19 19 19 19 18 18 19 19 19 18 18 18 18 18 18 18 18 18 18 18 18 18 18 18 18 18 18 18 18 18 18
20 21 24 29 30 29 27 28 27 27 26 25 25 25 24 22 21 20 19 19 19 19 18 18 19 19 18 18 18 18 18 18 18 18 18 18 18 18 18 18 18 18 18 18 18 18 18 18 18
21 23 27 30 29 29 28 28 28 27 26 26 25 25 22 21 21 20 19 19 19 19 19 18 19 19 18 18 18 18 18 18 18 18 18 18 18 18 18 18 18 18 18 18 18 18 18 18 18
22 27 30 30 29 29 29 28 28 28 27 26 26 25 22 20 20 20 19 19 19 19 19 18 19 19 18 18 18 18 18 18 18 18 18 18 18 18 18 18 18 18 18 18 18 18 18 18 18
27 30 30 30 29 29 29 28 28 28 27 26 25 25 22 20 20 19 19 19 19 19 19 18 19 18 18 18 18 18 18 18 18 18 18 18 18 18 18 18 18 18 18 18 18 18 18 18 18
28 31 30 30 30 29 29 28 28 28 27 26 25 25 22 20 20 20 19 19 19 19 19 18 18 18 18 18 18 18 18 18 18 18 18 18 18 18 18 18 18 18 18 18 18 18 18 18 18
28 31 31 31 30 30 29 28 27 27 27 25 25 25 23 20 20 19 19 19 19 19 19 19 18 18 18 18 18 18 18 18 18 18 18 18 18 18 18 18 18 18 18 18 18 18 18 18 18
28 32 31 31 30 30 29 29 27 26 26 25 25 24 23 20 20 20 19 19 19 18 18 19 18 18 18 18 18 18 18 18 18 18 18 18 17 17 18 17 18 18 18 18 18 18 18 18 18
30 32 31 31 31 31 30 29 28 27 26 25 24 22 21 20 20 20 20 20 19 19 19 18 18 18 18 18 17 18 17 18 18 17 17 17 17 18 17 18 18 18 18 18 18 18 18 18 18
31 31 31 31 31 30 30 29 28 28 28 27 25 22 21 21 21 21 20 20 20 19 19 19 18 18 18 18 18 18 18 17 17 17 17 17 17 17 17 17 18 18 18 17 18 17 17 17 17
31 31 31 31 30 30 30 29 29 28 28 26 25 23 22 21 21 21 21 20 20 19 19 19 18 18 18 18 18 18 18 18 18 18 17 17 17 17 17 17 17 17 17 17 17 17 17 17 17
32 31 31 30 30 30 29 29 29 28 26 25 24 23 22 22 22 21 21 20 20 19 19 19 18 18 18 18 18 18 18 18 18 18 18 17 17 18 17 17 17 17 17 17 17 17 17 17 17
32 31 31 31 30 30 30 29 29 28 26 25 24 23 23 23 22 21 20 20 20 19 19 19 18 19 19 18 18 18 18 18 18 18 18 18 18 18 18 18 17 17 17 17 17 17 17 17 17
31 32 32 31 30 30 30 30 30 27 26 25 25 24 23 23 22 21 21 20 20 20 19 19 19 19 19 18 18 18 18 18 18 18 18 18 18 18 18 17 17 17 17 17 17 17 17 17 18
32 32 32 31 31 30 31 31 30 27 27 26 25 24 23 23 22 22 21 21 20 20 19 19 19 19 19 19 18 18 18 18 18 18 18 18 18 18 18 18 18 17 17 17 18 18 18 18 18
32 32 32 32 31 31 31 31 30 28 27 27 26 25 24 23 22 22 21 21 20 20 20 20 19 19 19 19 18 18 18 18 18 18 18 18 18 18 18 18 18 17 17 17 18 18 17 17 17
32 32 32 32 32 31 31 31 30 28 28 27 26 25 24 24 23 22 21 21 20 20 20 20 19 19 19 19 19 18 18 18 18 18 18 18 18 17 17 17 17 17 17 17 17 17 17 17 17
32 32 32 32 32 31 31 31 31 29 28 28 27 26 25 24 23 22 22 21 20 20 20 20 20 19 19 19 18 18 18 18 18 18 18 18 17 17 18 18 17 17 17 17 17 17 17 17 17
31 31 32 32 31 31 31 31 31 30 29 28 27 26 25 25 24 22 22 21 21 20 20 20 20 20 19 19 19 18 18 18 18 18 18 18 17 17 18 18 17 17 17 17 17 17 17 17 17
31 31 31 31 31 31 31 31 31 31 29 28 27 27 26 25 24 23 22 22 21 21 20 20 20 20 20 19 19 18 18 18 18 18 18 18 18 18 18 18 17 17 17 17 17 17 17 17 17
31 32 31 31 31 31 31 31 31 31 30 30 28 27 26 25 25 23 22 22 21 21 21 20 20 20 20 19 19 18 18 18 18 18 18 18 18 18 18 18 18 18 17 18 17 17 17 17 17
31 31 31 31 31 31 31 31 32 32 31 31 30 28 27 26 25 24 23 22 22 21 21 20 20 20 20 20 19 19 18 18 18 18 18 18 18 18 18 18 18 18 18 18 18 17 17 17 17
31 30 30 30 31 30 31 31 31 32 32 31 31 29 27 27 26 24 23 23 22 21 21 20 20 20 20 20 19 19 19 19 18 18 18 18 18 18 18 18 18 18 18 18 18 18 18 17 17
30 30 29 29 30 30 31 30 31 32 32 31 31 29 28 27 26 25 24 23 22 21 21 20 20 20 20 20 19 19 19 19 19 18 18 18 18 18 18 18 18 18 18 18 18 18 17 17 17
30 30 29 29 30 31 30 30 32 32 31 30 29 29 28 27 26 25 24 23 22 22 21 21 20 20 20 20 20 20 19 19 18 18 18 18 18 18 18 18 17 18 18 17 17 17 17 17 17
30 30 31 30 30 30 31 31 31 31 30 30 29 28 27 27 26 25 24 23 22 22 21 21 20 20 20 20 20 20 20 19 19 18 18 18 18 18 17 17 17 18 17 17 17 17 17 17 17
30 30 30 30 28 28 30 30 31 30 30 30 30 28 27 26 26 25 24 23 22 22 21 21 20 20 20 20 20 20 20 20 19 19 18 18 18 18 17 17 17 17 17 17 17 17 17 17 17
29 29 29 30 29 29 29 30 32 31 30 30 29 28 27 26 26 25 24 23 22 22 21 21 20 20 20 20 20 20 20 20 20 19 19 18 18 18 18 17 17 17 17 17 17 17 16 16 16
29 29 29 28 28 28 29 30 31 30 30 29 28 27 26 25 25 24 23 23 22 22 21 21 20 20 20 20 20 20 20 19 19 19 19 18 18 18 18 18 17 17 17 17 17 17 16 16 16
Wind_Speed
12 9 5 4 4 5 11 9 8 7 6 7 7 5 8 9 7 7 6 8 9 11 13 14 14 13 14 14 14 14 14 14 14 14 14 14 14 13 13 13 13 14 14 15 15 15 15 15 15
8 5 5 4 1 9 11 9 10 9 8 7 7 7 8 9 8 8 8 9 11 11 12 14 14 13 13 12 13 13 13 13 13 13 13 13 13 12 12 12 12 13 14 14 14 15 14 14 14
6 5 4 1 9 11 11 9 10 9 8 5 5 7 6 7 7 7 10 12 12 12 12 14 13 13 13 12 12 12 13 13 13 12 12 12 12 12 11 11 12 13 14 14 14 14 14 13 13
4 4 3 4 13 12 10 9 8 8 7 6 6 7 7 6 5 9 13 13 12 12 13 14 13 13 12 12 12 11 12 12 12 12 11 12 11 11 12 12 12 12 13 13 13 13 13 12 12
4 3 3 11 13 10 9 7 6 7 6 7 7 9 8 6 10 13 13 12 12 11 11 14 13 12 12 11 11 11 11 11 11 11 11 11 11 11 11 12 12 12 12 12 12 12 11 11 11
3 1 6 11 11 8 8 6 6 8 8 7 7 9 7 8 11 12 12 11 11 11 11 13 13 12 11 11 10 10 10 10 10 10 10 10 10 10 10 10 11 12 11 11 11 11 10 10 10
3 4 8 10 10 9 6 5 5 6 7 6 5 7 8 9 11 11 11 11 10 10 10 10 11 11 11 11 10 9 9 9 9 9 9 9 9 9 9 10 10 11 11 11 10 10 10 9 9
3 1 7 8 8 9 6 5 5 4 6 6 4 5 8 12 12 11 11 10 9 8 8 8 8 9 9 11 10 9 8 8 8 8 8 8 9 9 9 10 10 10 10 10 9 9 9 9 8
3 1 8 7 6 6 6 5 5 5 7 6 5 7 12 16 13 12 11 10 9 8 7 7 7 7 7 8 10 9 9 8 8 8 8 6 7 8 9 10 10 9 9 9 8 8 8 8 9
2 5 8 5 4 4 5 4 5 6 7 7 9 11 16 15 13 12 11 11 10 9 7 6 6 6 6 6 7 6 7 7 5 6 6 5 5 6 8 11 9 9 9 8 8 7 8 8 7
2 5 5 4 3 3 5 5 4 4 4 6 11 15 16 15 13 11 10 10 10 9 7 7 6 5 5 4 5 4 4 5 5 5 4 4 5 6 6 7 8 8 8 7 8 7 4 3 2
1 3 3 2 2 3 4 4 4 2 4 7 11 16 17 15 13 11 10 10 9 9 8 7 6 5 4 3 3 4 4 4 4 5 4 5 4 4 4 4 5 5 5 4 4 3 3 2 2
1 3 3 2 2 3 4 4 3 4 5 9 13 16 16 14 13 11 10 9 9 9 8 7 7 6 4 3 3 3 3 4 5 5 4 4 4 4 4 4 3 3 4 4 3 3 2 2 3
3 2 2 2 4 5 5 4 3 4 8 11 14 15 15 14 13 12 10 9 9 9 8 8 7 7 6 4 3 3 4 4 4 4 5 4 4 4 4 4 3 3 3 2 2 2 2 2 1
2 1 2 3 3 4 4 4 4 7 10 11 13 14 14 13 13 12 11 10 10 9 8 8 8 7 6 5 4 4 4 4 4 4 5 5 4 4 3 3 3 3 3 3 2 2 2 2 2
4 4 2 3 3 3 6 2 6 9 11 11 12 13 13 13 13 11 11 10 10 9 9 8 7 8 7 5 4 4 4 4 4 4 5 5 4 4 3 3 3 3 3 2 2 2 2 1 1
6 4 2 2 3 3 5 1 6 8 10 10 12 13 13 13 13 12 12 11 10 10 9 9 8 7 7 6 5 4 4 4 4 4 4 5 5 4 4 2 2 3 2 2 2 1 1 1 1
4 5 4 3 2 5 6 3 5 8 9 10 12 12 13 14 14 13 12 12 11 10 10 9 8 8 7 6 5 4 4 4 4 4 4 4 4 5 4 3 3 3 2 2 2 1 1 2 2
7 8 7 3 1 5 6 6 5 7 9 10 12 13 13 14 14 13 12 12 11 11 11 10 10 9 7 6 6 6 5 5 4 4 5 5 4 4 4 3 3 3 3 3 3 3 3 3 2
9 10 8 4 2 5 7 7 7 9 11 11 12 13 14 14 14 14 14 13 13 13 12 11 11 10 9 7 6 5 5 5 5 4 4 5 4 4 5 4 4 3 3 3 4 4 3 3 3
11 11 9 7 4 7 8 9 8 9 10 10 11 12 13 14 16 16 15 15 14 13 13 12 12 12 11 9 7 6 5 5 5 5 5 5 5 5 4 4 3 3 4 4 4 4 5 4 4
12 8 8 8 9 8 7 9 8 8 10 11 11 12 13 14 15 16 16 16 16 15 13 13 12 12 11 11 9 9 7 6 6 5 5 5 5 5 5 5 4 4 4 4 5 5 4 5 4
9 5 7 9 11 11 10 10 7 7 9 10 11 12 13 14 15 16 17 17 16 15 14 13 13 12 12 12 11 10 9 7 6 5 5 5 5 6 5 5 4 4 4 4 4 3 5 4 5
7 6 7 9 11 13 11 11 9 6 7 7 8 10 11 12 14 15 15 16 16 15 15 14 14 13 13 13 12 11 10 8 7 7 6 6 5 5 6 5 5 5 4 4 4 4 5 4 4
10 10 8 9 10 11 6 10 9 4 4 5 5 7 9 11 12 13 15 16 16 17 16 15 15 14 14 13 12 12 11 10 9 8 7 6 5 5 5 5 5 4 4 4 4 4 4 5 5
12 14 12 11 11 9 6 10 6 3 3 4 4 5 6 9 11 12 14 15 15 17 17 16 16 14 14 13 12 11 11 9 8 8 7 7 5 5 5 5 5 5 5 4 4 4 4 3 4
11 13 12 13 14 13 9 8 7 6 6 5 4 3 4 6 8 9 11 13 14 15 16 16 15 14 14 13 12 11 11 10 9 8 8 7 6 5 5 6 5 5 5 4 4 4 4 4 5
10 9 9 12 11 13 12 12 9 6 6 5 4 3 3 5 7 9 9 11 12 13 14 15 15 14 14 13 12 11 11 10 9 9 8 7 6 5 5 6 5 5 5 5 5 4 4 4 4
9 10 10 10 12 13 13 8 2 4 4 4 3 2 2 3 5 7 8 9 11 12 13 14 14 14 13 13 12 11 11 10 10 9 8 8 7 7 6 6 6 5 5 5 4 4 4 5 5
10 11 12 11 11 12 13 10 1 2 3 3 3 2 1 2 3 5 7 8 9 11 12 12 13 13 13 12 12 11 10 10 10 9 9 8 8 8 7 7 6 6 5 5 5 5 5 5 5
Wind_Direction
172 180 205 237 227 82 66 64 65 75 71 68 71 63 63 48 38 80 102 111 117 120 121 121 115 116 114 110 109 106 107 107 108 109 109 111 111 111 114 116 116 118 121 122 125 126 125 124 124
171 185 227 246 30 76 70 67 71 68 86 96 79 70 70 64 64 99 117 117 123 121 122 119 116 118 116 113 110 108 107 107 108 110 114 116 116 114 115 119 120 120 123 125 125 126 125 124 123
183 226 264 354 56 63 73 74 80 90 97 91 81 62 57 70 87 107 118 126 124 119 119 117 122 119 118 116 113 110 108 107 109 112 115 119 122 122 122 124 124 122 125 127 128 129 127 126 126
220 229 229 73 72 65 74 86 97 103 92 80 90 85 75 62 94 115 125 129 123 121 123 120 124 121 118 115 113 112 111 110 111 112 114 118 122 125 126 126 126 125 126 128 129 130 130 128 128
247 256 104 81 75 74 77 88 99 89 83 86 89 91 86 79 103 120 130 128 123 122 121 121 123 122 119 116 114 113 112 112 112 114 115 118 121 123 124 126 127 128 127 127 130 130 130 132 133
259 257 77 80 80 81 87 98 98 85 89 95 97 98 88 110 120 126 129 127 125 125 123 121 127 128 126 123 118 116 115 112 112 114 117 118 120 121 125 129 131 131 129 130 132 132 129 133 135
319 46 71 79 88 87 84 94 91 88 92 92 100 99 112 126 127 129 127 127 127 127 124 126 132 133 134 129 124 125 121 118 116 115 116 116 119 123 126 131 133 133 134 135 136 134 134 136 138
305 19 81 76 81 85 98 102 81 85 91 100 108 108 129 138 137 135 130 129 130 130 128 130 131 130 136 133 130 131 127 125 123 120 121 123 129 134 139 142 134 135 136 136 138 139 140 140 142
269 56 70 66 70 90 115 115 101 101 107 105 88 92 126 138 143 142 138 137 138 138 138 137 130 131 131 130 135 141 139 135 143 138 140 160 151 144 150 123 131 136 137 138 140 144 149 156 154
286 47 58 53 65 91 126 125 125 132 122 122 114 113 130 144 152 153 149 150 150 148 146 140 139 139 135 132 138 146 146 143 148 134 144 145 133 135 126 123 133 142 146 151 150 154 169 191 160
8 38 48 60 71 104 134 137 146 139 129 142 144 144 148 154 159 159 156 155 153 152 149 149 147 146 139 137 143 141 138 138 141 133 136 121 131 136 139 143 147 152 163 160 155 174 170 159 133
53 41 30 53 89 138 138 137 146 157 86 128 147 151 156 162 166 166 163 160 155 158 158 157 153 153 150 144 144 149 150 149 143 142 154 144 140 141 135 147 147 158 152 149 157 153 145 153 169
45 36 37 56 135 144 147 142 137 128 124 136 146 155 163 168 169 168 164 162 164 167 168 167 164 159 158 161 172 151 153 155 150 147 150 155 152 149 147 142 149 157 151 160 155 150 150 174 182
8 9 60 97 121 146 160 152 167 138 143 148 157 164 169 173 172 170 172 174 174 176 175 172 174 171 170 170 167 159 161 160 157 156 155 168 159 148 152 153 157 159 165 150 158 154 174 196 184
271 248 141 120 146 156 178 176 171 149 157 160 165 169 172 177 178 179 181 183 181 180 178 177 179 178 180 180 177 172 171 165 163 156 161 171 166 152 166 158 168 159 160 160 179 163 177 194 201
234 239 208 124 164 179 231 161 136 158 170 172 174 176 179 182 185 183 183 188 184 181 179 183 184 180 181 185 188 180 179 170 166 168 166 173 169 169 185 173 169 163 183 180 175 197 188 185 219
228 257 292 146 181 206 238 248 141 171 182 182 183 184 185 184 189 186 186 188 186 184 183 185 187 184 183 181 184 185 174 179 177 177 176 170 179 181 195 187 157 190 200 208 223 178 230 203 211
264 277 276 273 188 233 243 244 172 183 196 194 191 192 191 191 192 188 190 188 186 184 186 188 187 186 183 181 180 186 183 184 186 183 171 173 180 182 204 195 188 220 216 215 216 213 234 242 237
286 281 282 290 249 247 250 249 219 200 206 203 198 197 196 197 191 188 191 191 188 187 187 191 192 186 188 188 191 187 190 192 187 186 178 184 194 189 204 218 190 224 219 225 225 225 219 233 225
260 265 268 260 231 257 264 259 236 215 215 212 207 203 201 198 192 190 193 194 193 191 191 192 193 191 195 193 194 195 197 198 191 189 175 193 201 210 204 216 224 217 216 224 228 226 242 240 224
252 259 270 277 261 238 261 252 226 216 216 218 215 210 205 201 197 193 195 197 197 196 195 196 196 193 198 194 190 189 187 201 191 191 187 194 204 209 224 216 229 231 233 222 229 229 232 242 238
254 257 264 262 261 259 253 272 243 218 215 217 215 210 207 203 200 197 198 199 199 198 194 195 195 195 194 193 197 196 198 202 197 192 186 191 200 208 208 216 223 234 243 232 235 227 236 242 249
264 274 259 259 262 268 250 263 257 217 228 223 217 212 211 204 203 201 201 200 200 197 194 193 193 195 194 195 197 201 208 206 196 190 185 200 196 206 212 216 223 227 237 238 248 244 242 241 248
242 237 245 246 252 253 249 256 260 236 236 233 218 213 212 208 204 202 201 198 199 196 193 193 191 194 194 195 198 202 206 205 200 196 193 198 198 200 205 212 222 230 236 233 236 237 232 242 251
223 235 242 239 236 250 233 251 261 258 253 254 241 222 212 207 204 200 199 198 196 194 193 193 192 194 194 196 200 202 205 205 206 206 203 209 206 202 205 214 218 232 235 241 245 238 243 235 238
227 238 247 258 260 259 226 247 259 244 248 252 248 227 212 204 203 200 197 196 195 195 194 193 191 191 192 194 199 203 204 207 209 211 216 210 216 213 200 210 219 227 231 235 235 242 234 232 238
232 238 255 262 267 272 258 252 249 226 232 234 227 210 205 200 199 196 193 193 194 196 195 193 190 190 192 194 195 199 203 208 209 205 212 215 215 214 205 212 218 223 226 232 236 241 241 235 238
249 247 243 249 256 260 258 251 250 235 239 235 229 219 206 199 195 191 189 190 192 194 194 193 191 193 193 194 197 197 200 203 206 208 208 211 210 213 215 217 219 220 222 222 230 234 234 239 243
216 228 239 250 254 260 265 262 258 246 245 247 240 233 211 193 186 186 184 186 188 188 188 189 190 193 194 195 196 198 196 198 201 203 206 207 207 205 213 217 220 221 221 221 223 236 234 239 244
238 236 234 245 249 254 266 269 241 252 266 263 268 257 219 190 186 184 181 180 185 188 188 189 191 192 193 192 193 195 194 195 198 201 206 207 209 210 210 213 216 220 219 222 225 235 237 239 244
Height
1499 1499 1500 1502 1495 1490 1496 1496 1494 1496 1498 1502 1503 1503 1503 1506 1508 1518 1521 1519 1520 1522 1523 1524 1525 1526 1528 1529 1530 1530 1531 1531 1532 1534 1535 1536 1537 1538 1540 1541 1542 1544 1545 1547 1549 1551 1552 1554 1555
1501 1501 1502 1499 1488 1496 1502 1496 1498 1500 1503 1505 1506 1506 1507 1511 1515 1518 1520 1521 1523 1525 1526 1527 1528 1529 1530 1531 1532 1533 1533 1534 1535 1536 1537 1538 1540 1541 1542 1543 1544 1546 1547 1549 1551 1552 1554 1556 1557
1502 1502 1502 1491 1490 1498 1503 1498 1500 1503 1506 1506 1507 1509 1511 1515 1518 1520 1522 1524 1526 1527 1528 1528 1530 1531 1532 1533 1534 1535 1536 1537 1538 1539 1539 1540 1541 1542 1543 1545 1546 1548 1549 1551 1552 1554 1556 1557 1559
1504 1504 1499 1491 1496 1497 1497 1499 1502 1504 1506 1508 1508 1511 1516 1520 1521 1523 1524 1526 1528 1529 1531 1531 1532 1533 1534 1535 1536 1537 1538 1539 1540 1541 1541 1542 1543 1544 1545 1546 1548 1549 1551 1552 1554 1556 1558 1559 1560
1504 1500 1491 1493 1497 1497 1498 1502 1503 1503 1506 1509 1510 1513 1519 1522 1523 1524 1526 1528 1530 1531 1533 1533 1534 1535 1536 1537 1538 1539 1540 1541 1542 1542 1543 1544 1545 1546 1547 1548 1549 1551 1553 1554 1556 1557 1559 1560 1562
1503 1493 1493 1499 1500 1498 1500 1504 1504 1506 1509 1511 1513 1515 1522 1525 1525 1527 1528 1530 1532 1533 1535 1535 1536 1537 1538 1539 1539 1540 1541 1542 1543 1544 1545 1545 1546 1547 1549 1550 1551 1553 1554 1556 1557 1559 1560 1562 1563
1502 1492 1495 1496 1499 1500 1502 1504 1505 1507 1510 1513 1515 1516 1523 1526 1528 1529 1531 1532 1534 1535 1537 1538 1538 1539 1540 1540 1541 1542 1543 1544 1544 1545 1546 1547 1547 1548 1550 1551 1553 1554 1556 1557 1559 1560 1562 1563 1564
1502 1493 1493 1495 1498 1501 1503 1505 1508 1509 1512 1516 1517 1517 1523 1527 1529 1531 1532 1534 1535 1537 1538 1539 1541 1542 1542 1543 1543 1543 1544 1545 1546 1546 1547 1547 1548 1549 1551 1552 1554 1555 1557 1558 1560 1561 1563 1564 1565
1502 1493 1496 1497 1498 1500 1503 1505 1509 1512 1514 1516 1518 1520 1523 1527 1530 1532 1534 1535 1537 1538 1540 1541 1542 1543 1544 1545 1544 1545 1545 1546 1547 1547 1547 1548 1549 1550 1552 1554 1555 1556 1558 1559 1561 1562 1564 1565 1566
1499 1494 1497 1496 1497 1498 1503 1505 1508 1511 1514 1517 1520 1523 1525 1528 1531 1533 1534 1536 1537 1539 1540 1541 1542 1544 1545 1545 1546 1547 1548 1548 1548 1549 1548 1548 1547 1549 1552 1554 1556 1557 1559 1560 1562 1563 1565 1566 1568
1498 1496 1497 1498 1499 1501 1503 1506 1508 1509 1511 1515 1519 1523 1526 1529 1531 1533 1535 1536 1538 1540 1541 1542 1543 1544 1545 1546 1547 1547 1548 1548 1549 1549 1549 1549 1549 1551 1554 1556 1557 1558 1560 1562 1563 1564 1566 1568 1569
1499 1498 1499 1499 1501 1502 1503 1505 1508 1509 1512 1516 1519 1522 1525 1528 1531 1533 1535 1537 1539 1540 1541 1542 1543 1544 1545 1546 1547 1548 1549 1549 1549 1549 1550 1551 1552 1554 1556 1557 1559 1560 1562 1562 1564 1565 1566 1567 1568
1498 1499 1500 1500 1501 1502 1504 1506 1508 1511 1514 1516 1519 1523 1526 1528 1531 1534 1536 1537 1539 1540 1542 1543 1544 1544 1544 1545 1547 1548 1548 1549 1550 1550 1550 1552 1554 1555 1557 1558 1559 1562 1562 1563 1564 1565 1566 1567 1568
1499 1499 1499 1500 1501 1503 1504 1506 1508 1511 1515 1517 1520 1522 1525 1528 1531 1533 1535 1537 1539 1540 1542 1543 1544 1544 1545 1546 1547 1548 1549 1548 1550 1550 1551 1552 1554 1556 1557 1558 1560 1562 1563 1564 1565 1566 1566 1567 1568
1500 1498 1497 1499 1501 1502 1503 1504 1506 1511 1514 1517 1519 1522 1525 1528 1530 1532 1534 1536 1538 1540 1541 1542 1544 1545 1545 1546 1547 1548 1549 1550 1550 1551 1552 1553 1555 1556 1557 1559 1560 1562 1563 1564 1564 1565 1566 1567 1568
1496 1495 1497 1498 1499 1502 1503 1504 1504 1510 1513 1515 1518 1521 1524 1526 1529 1532 1534 1536 1538 1539 1541 1542 1544 1545 1545 1547 1547 1549 1549 1550 1550 1551 1552 1553 1555 1556 1558 1560 1561 1562 1563 1564 1564 1565 1566 1566 1567
1494 1497 1497 1497 1498 1498 1499 1500 1503 1508 1510 1513 1516 1519 1522 1525 1528 1530 1532 1534 1536 1538 1540 1541 1543 1544 1545 1547 1547 1549 1549 1550 1551 1552 1553 1554 1555 1557 1558 1560 1561 1562 1563 1564 1564 1565 1565 1565 1565
1499 1496 1497 1497 1495 1497 1497 1497 1500 1505 1508 1510 1513 1517 1520 1522 1525 1528 1531 1533 1535 1536 1538 1540 1541 1543 1545 1546 1547 1548 1549 1550 1551 1552 1553 1554 1556 1557 1558 1560 1560 1562 1563 1563 1563 1563 1563 1564 1564
1495 1497 1498 1495 1494 1496 1496 1496 1497 1501 1505 1507 1510 1513 1517 1520 1523 1526 1529 1531 1533 1535 1536 1538 1540 1542 1543 1545 1546 1548 1549 1550 1551 1552 1553 1554 1555 1557 1557 1560 1560 1560 1562 1562 1562 1562 1562 1563 1563
1497 1499 1496 1494 1494 1496 1495 1494 1493 1497 1500 1503 1506 1510 1513 1517 1520 1523 1526 1528 1530 1531 1533 1536 1538 1540 1542 1543 1545 1547 1548 1550 1551 1552 1552 1554 1555 1556 1558 1558 1559 1560 1560 1560 1560 1560 1561 1562 1562
1496 1497 1495 1497 1494 1493 1496 1495 1491 1492 1497 1500 1503 1505 1509 1512 1515 1519 1522 1524 1527 1529 1531 1533 1536 1538 1540 1542 1544 1546 1547 1548 1550 1551 1552 1553 1554 1555 1556 1557 1558 1558 1558 1559 1558 1559 1559 1560 1561
1496 1490 1494 1496 1498 1494 1495 1501 1488 1485 1490 1494 1497 1500 1504 1507 1511 1515 1517 1520 1523 1525 1528 1531 1533 1535 1538 1540 1542 1544 1546 1547 1548 1550 1551 1552 1552 1554 1555 1555 1556 1556 1557 1557 1557 1558 1558 1558 1559
1492 1491 1493 1494 1495 1497 1493 1498 1487 1481 1486 1487 1490 1494 1498 1503 1506 1509 1512 1515 1519 1522 1525 1527 1530 1533 1535 1537 1540 1542 1544 1546 1547 1548 1550 1550 1551 1552 1553 1554 1554 1554 1555 1555 1555 1555 1556 1556 1556
1491 1494 1493 1492 1492 1504 1493 1496 1491 1477 1480 1481 1484 1490 1494 1498 1502 1505 1508 1512 1515 1519 1522 1524 1526 1529 1532 1534 1537 1539 1541 1543 1545 1546 1548 1549 1550 1550 1551 1551 1552 1552 1553 1553 1553 1552 1553 1553 1553
1491 1497 1504 1506 1503 1498 1486 1492 1485 1474 1476 1479 1482 1486 1490 1494 1497 1500 1504 1507 1510 1514 1517 1520 1523 1525 1528 1531 1534 1536 1538 1541 1542 1544 1546 1547 1548 1549 1549 1550 1550 1550 1550 1551 1551 1550 1551 1551 1551
1488 1489 1503 1510 1503 1490 1488 1490 1477 1473 1477 1480 1482 1484 1487 1490 1492 1495 1499 1502 1506 1510 1513 1516 1518 1521 1524 1527 1530 1533 1535 1538 1540 1542 1544 1545 1546 1547 1547 1548 1548 1548 1548 1549 1548 1549 1548 1548 1548
1486 1485 1480 1488 1491 1495 1485 1479 1474 1473 1475 1477 1479 1482 1484 1487 1489 1492 1495 1498 1502 1505 1508 1511 1514 1517 1520 1524 1527 1530 1532 1534 1537 1539 1540 1542 1543 1545 1545 1546 1546 1546 1546 1546 1546 1546 1546 1546 1546
1482 1480 1484 1489 1503 1504 1490 1483 1477 1473 1473 1474 1476 1479 1482 1485 1487 1489 1492 1495 1498 1501 1505 1508 1511 1513 1516 1520 1523 1526 1528 1531 1533 1535 1537 1539 1540 1541 1542 1543 1544 1544 1544 1544 1544 1544 1543 1543 1543
1485 1485 1484 1484 1485 1497 1497 1482 1463 1468 1470 1473 1475 1478 1480 1482 1484 1487 1489 1492 1495 1498 1501 1504 1507 1510 1513 1516 1519 1522 1525 1527 1529 1531 1533 1535 1537 1538 1539 1540 1541 1541 1541 1541 1541 1541 1541 1541 1540
1478 1479 1482 1490 1491 1487 1489 1480 1462 1467 1470 1473 1475 1477 1480 1482 1483 1485 1487 1490 1492 1495 1498 1501 1504 1507 1509 1512 1515 1518 1521 1523 1526 1528 1530 1532 1533 1535 1536 1537 1537 1538 1538 1538 1538 1538 1538 1538 1538